{"data":{"norad_id":53105,"intl_designator":"2022-080A","name":"LARES-2","alt_names":[],"object_type":"PAYLOAD","status":"ACTIVE","operator":null,"country":"IT","launch_date":"2022-07-13","launch_site_code":"FRGUI","launch_vehicle":null,"mission":null,"orbit_class":"UNKNOWN","rcs_meters":null,"size_class":null,"mass_kg":null,"dimensions":null,"purposes":["science"],"wikipedia_slug":null,"has_3d_model":false,"image_url":null,"decayed_at":null,"tle_current":{"epoch":"2026-09-14T05:27:47.219040Z","epoch_age_seconds":556445,"freshness":"STALE","line1":"1 53105U 22080A   26257.22762985  .00000002  00000+0  00000+0 0  9999","line2":"2 53105  70.1478 274.7815 0005528 316.6821  43.3442  6.38965299 97355","mean_motion":6.38965299,"eccentricity":0.0005528,"inclination_deg":70.1478,"raan_deg":274.7815,"arg_perigee_deg":316.6821,"mean_anomaly_deg":43.3442,"bstar":0,"rev_number":9735,"period_min":225.36435112418,"perigee_km":5882.4194588119,"apogee_km":5895.9822275313,"semimajor_km":12267.337843172,"source":"CELESTRAK","updated_at":"2026-09-20T09:00:47.282544Z"}}}